Simultaneous Nadir Overpasses (SNOs) Predictions

Prediction of SNOs between LANDSAT-8 and NOAA-19 Satellite Orbit:

Table of predicted SNOs for the next 14.0 days since TLE Epoch: 4/10/2015
Index Date (LANDSAT-8) Time (LANDSAT-8) Lat,Lon (LANDSAT-8) SZA (LANDSAT-8 ) Date (NOAA-19) Time (NOAA-19) Lat,Lon (NOAA-19) SZA (NOAA-19 ) Distance(km) Time Diff (sec)
1 04/11/2015 23:00:58 -73.10, 15.75 115.47 04/11/2015 23:00:08 -73.09, 15.67 115.47 2.54 50
2 04/11/2015 23:50:25 73.01,-176.78 64.44 04/11/2015 23:51:03 72.99,-176.84 64.42 3.35 38
3 04/14/2015 04:34:41 73.07, 112.26 63.70 04/14/2015 04:34:30 73.05, 112.20 63.68 2.98 11
4 04/14/2015 05:24:17 -72.63, -80.95 116.76 04/14/2015 05:25:27 -72.61, -79.61 116.77 44.60 70
5 04/16/2015 09:18:57 73.12, 41.29 62.97 04/16/2015 09:17:57 73.12, 41.22 62.96 2.16 60
6 04/16/2015 10:08:27 -73.01,-151.32 117.17 04/16/2015 10:09:01 -73.03,-151.34 117.15 2.42 34
7 04/18/2015 14:52:43 -73.05, 137.70 117.90 04/18/2015 14:52:27 -73.05, 137.78 117.89 2.49 16
8 04/18/2015 15:42:10 72.96, -54.83 62.01 04/18/2015 15:43:22 72.96, -54.75 62.01 2.61 72
9 04/20/2015 19:36:58 -73.15, 66.81 118.56 04/20/2015 19:35:54 -73.14, 66.76 118.56 1.93 64
10 04/20/2015 20:26:25 73.06,-125.73 61.34 04/20/2015 20:26:49 73.05,-125.76 61.34 1.58 24
11 04/23/2015 01:10:41 73.09, 163.27 60.64 04/23/2015 01:10:15 73.09, 163.32 60.64 1.60 26




NCC Satellite Simultaneous Nadir Overpasses (SNOs) Prediction Service
